Regional Weather Roundup
Issued by NWS

Home | Current Version | Previous Version | Text Only | Print | Product List | Glossary On
Versions: 1 2 3 4 5 6 7 8 9 10 11 12 13 14 15 16 17 18 19 20 21 22 23 24 25 26 27
000
ASUS44 KLIX 171813
RWRLA
LOUISIANA WEATHER ROUNDUP
NATIONAL WEATHER SERVICE NEW ORLEANS LA
100 PM CDT THU AUG 17 2017

NOTE: "FAIR" INDICATES FEW OR NO CLOUDS BELOW 12,000 FEET WITH NO
      SIGNIFICANT WEATHER AND/OR OBSTRUCTIONS TO VISIBILITY.
      SKY/WX - SKY CONDITION AND SIGNIFICANT WEATHER.
      TMP - AIR TEMPERATURE.    DP   - DEWPOINT TEMPERATURE.
      RH  - RELATIVE HUMIDITY.  PRES - PRESSURE.
      HX  - HEAT INDEX.         WCI  - WIND CHILL INDEX.

*  THESE STATIONS ARE NOT NWS OR FAA STATIONS AND ARE NOT UNDER
   NWS QUALITY CONTROL.

LAZ040-048-061>063-065-066-069-171900-
SOUTHEAST LOUISIANA

CITY           SKY/WX    TMP DP  RH WIND       PRES   REMARKS
N.O. INTL ARPT MOSUNNY   92  77  61 NW7       30.07F HX 105
6HR MIN TEMP:  77; 6HR MAX TEMP:  92;

N.O. LAKEFRONT SUNNY     90  79  70 NW10      30.08F HX 106
6HR MIN TEMP:  80; 6HR MAX TEMP:  91;

N.O. DOWNTOWN* FAIR      93  75  55 CALM      30.09F HX 104
6HR MIN TEMP:  82; 6HR MAX TEMP:  93;

RESERVE*       FAIR      94  75  52 W6        30.08F HX 106
6HR MIN TEMP:  78; 6HR MAX TEMP:  95; 6HR PCP:  0.01;

SLIDELL        MOSUNNY   90  74  59 W7        30.08F HX  99
6HR MIN TEMP:  73; 6HR MAX TEMP:  91;

BATON ROUGE    MOSUNNY   92  74  55 W8        30.07F HX 101
6HR MIN TEMP:  75; 6HR MAX TEMP:  92;

BOOTHVILLE     SUNNY     90  78  68 SW6       30.10F HX 104
6HR MIN TEMP:  85; 6HR MAX TEMP:  90;

BELLE CHASSE   MOSUNNY   91  72  53 SW8       30.08F HX  98
6HR MIN TEMP:  79; 6HR MAX TEMP:  91;

BOGALUSA*      MOCLDY    91  72  53 W7        30.10F HX  99
6HR MIN TEMP:  73; 6HR MAX TEMP:  92;

GALLIANO*      PTCLDY    90  74  59 SW8       30.09F HX 100
6HR MIN TEMP:  76; 6HR MAX TEMP:  91;

NEW ROADS*     FAIR      91  76  62 SW8       30.07F HX 102
6HR MIN TEMP:  74; 6HR MAX TEMP:  91; 6HR PCP:  0.01;

GONZALES*      FAIR      91  73  56 SW6       30.07F HX  99
6HR MIN TEMP:  74; 6HR MAX TEMP:  91; 6HR PCP:  0.04;

HAMMOND*       SUNNY     91  70  49 SW9       30.08F HX  97
HOUMA*         PTSUNNY   88  79  74 W7        30.08F HX 102
PORT FOURCHON* PTCLDY    88  75  66 W8        30.09F HX  97

$$

LAZ041-044-053-054-171900-
SOUTHWEST LOUISIANA

CITY           SKY/WX    TMP DP  RH WIND       PRES   REMARKS
LAKE CHARLES   MOSUNNY   91  79  67 S10       30.06F HX 107
6HR MIN TEMP:  83; 6HR MAX TEMP:  92; 6HR PCP: TRACE;

LAFAYETTE      MOSUNNY   93  76  57 VRB7G17   30.07F HX 105
6HR MIN TEMP:  79; 6HR MAX TEMP:  94;

PATTERSON      MOSUNNY   91  79  67 W7        30.08F HX 107
6HR MIN TEMP:  76; 6HR MAX TEMP:  91;

SALT POINT       N/A     90  78  68 VRB5      30.07F HX 104
6HR MIN TEMP:  85; 6HR MAX TEMP:  90;

NEW IBERIA     MOSUNNY   92  74  55 S5        30.07F HX 101
6HR MIN TEMP:  76; 6HR MAX TEMP:  92;

CHENAULT AIRPK PTSUNNY   91  79  66 S12G20    30.07S THUNDER HX 107

$$

LAZ027-028-171900-
CENTRAL LOUISIANA

CITY           SKY/WX    TMP DP  RH WIND       PRES   REMARKS
FORT POLK      CLOUDY    81  77  86 SE6       30.08S
6HR MIN TEMP:  78; 6HR MAX TEMP:  89; 6HR PCP: TRACE;

ALEXANDRIA INT NOT AVBL
ALEXANDRIA     NOT AVBL

$$

LAZ001-002-171900-
NORTHWEST LOUISIANA

CITY           SKY/WX    TMP DP  RH WIND       PRES   REMARKS
SHREVEPORT     CLOUDY    88  69  53 W17       30.04F
6HR MIN TEMP:  75; 6HR MAX TEMP:  88; 6HR PCP:  0.02;

BARKSDALE AFB  MOSUNNY   87  68  53 NW15      30.04F
6HR MIN TEMP:  74; 6HR MAX TEMP:  87; 6HR PCP:  0.06;

DTN SHREVEPORT PTSUNNY   85  70  60 W9        30.05F
6HR MIN TEMP:  75; 6HR MAX TEMP:  87; 6HR PCP: TRACE;


$$

LAZ014-016-171900-
NORTHEAST LOUISIANA

CITY           SKY/WX    TMP DP  RH WIND       PRES   REMARKS
MONROE         LGT RAIN  80  75  84 NW9G22    30.04R
6HR MIN TEMP:  78; 6HR MAX TEMP:  91; 6HR PCP: TRACE;

TALLULAH       CLOUDY    86  79  79 VRB3      30.03F HX  99
6HR MIN TEMP:  75; 6HR MAX TEMP:  90; 6HR PCP:  0.09;


$$





USA.gov is the U.S. government's official web portal to all federal, state and local government web resources and services.